GFSNW_850_spd_228.txt.gz
Wind_Speed
5 4 4 5 4 4 6 6 2 8 8 4 2 1 3 6 5 5 2 1 3 2 5 4 4 3 3 4 4 3 2 2 3 5 4 4 3 4 5 3 13 4 2 3
5 5 5 5 4 3 4 6 4 6 7 3 2 5 4 2 3 3 4 3 3 2 2 3 2 4 9 8 3 2 1 1 3 7 3 4 4 3 2 4 4 2 1 5
5 5 4 4 4 2 2 3 2 3 4 3 3 2 3 5 5 4 3 2 2 4 3 2 4 3 4 14 10 13 1 2 5 4 5 3 6 5 7 3 3 4 4 10
5 4 4 4 4 3 2 1 1 0 2 3 1 0 2 3 3 2 4 3 2 2 3 3 3 3 5 7 5 2 5 5 5 9 14 13 12 11 10 13 11 7 6 11
5 4 4 4 5 5 5 2 1 1 4 4 1 2 3 3 3 3 3 3 6 2 5 9 8 4 3 5 5 2 1 3 3 5 10 11 14 16 15 13 14 15 19 19
8 6 4 4 5 7 4 4 5 1 4 1 3 3 4 4 1 7 11 4 4 10 12 17 19 19 19 14 6 4 4 4 2 8 7 6 8 21 14 10 10 15 15 22
10 10 7 5 6 8 9 5 4 3 4 3 4 4 7 9 7 8 17 18 5 8 14 23 16 16 16 16 17 15 8 4 3 5 3 8 13 6 14 20 19 16 15 16
14 12 11 10 9 8 11 12 11 5 3 8 6 11 10 15 15 8 13 26 19 12 12 3 5 4 6 6 13 14 17 10 4 3 4 9 19 9 4 6 15 13 17 20
18 18 16 13 13 13 13 13 13 11 4 7 17 5 7 4 3 5 8 10 12 10 2 3 3 4 5 5 6 1 7 13 6 2 4 7 2 3 7 4 12 25 18 19
18 18 19 19 18 16 16 15 14 14 10 22 25 10 6 6 3 3 4 5 4 4 1 2 4 4 4 4 4 3 3 3 14 11 8 8 6 7 8 6 10 3 6 18
14 15 16 16 16 16 17 20 18 20 17 30 29 29 22 12 10 6 5 7 4 2 1 3 4 3 4 3 4 4 5 5 4 5 7 14 11 5 10 11 18 22 19 21
15 15 15 15 13 13 13 20 17 20 26 25 25 24 26 33 35 26 14 10 4 5 3 2 2 2 2 9 12 5 6 7 3 7 7 3 10 13 18 21 25 27 31 33
14 14 14 13 12 12 13 17 16 18 19 32 36 34 23 23 31 38 25 25 21 16 23 4 3 6 2 6 8 10 6 11 13 14 21 27 38 41 39 42 38 39 46 46
14 15 14 14 13 13 13 16 16 16 12 8 11 15 22 20 18 24 34 40 17 20 20 10 4 4 9 8 11 11 8 6 16 19 23 31 35 39 39 38 38 40 42 41
16 16 16 16 16 14 15 18 21 20 18 5 16 36 32 22 34 31 30 34 38 25 9 6 7 5 8 8 9 13 17 23 13 15 24 24 29 36 37 32 31 36 38 41
22 19 17 18 16 14 14 9 14 25 30 7 3 11 30 20 14 20 26 31 30 22 8 5 11 27 8 4 6 13 25 31 37 22 39 37 45 37 41 41 41 42 41 39
10 11 11 16 19 18 18 4 4 1 18 4 4 5 5 6 2 5 15 20 14 16 11 9 15 19 11 4 13 29 24 24 30 34 32 23 34 25 30 32 34 36 37 37
9 8 10 11 13 21 28 31 20 16 7 6 3 5 5 4 2 2 7 6 13 12 7 6 4 6 7 6 16 12 11 17 22 19 22 25 30 35 33 32 30 30 33 38
6 6 8 11 13 12 15 15 23 29 20 4 4 3 4 2 3 2 4 7 3 5 3 2 4 2 6 8 6 9 10 10 18 27 25 25 23 25 26 27 28 25 32 36
6 9 5 5 7 9 6 6 12 17 14 13 4 7 4 4 4 3 2 4 2 2 4 4 3 5 16 23 17 13 13 15 16 20 25 25 24 25 26 26 27 29 31 23
5 9 7 7 8 6 7 6 8 9 4 9 9 22 10 8 3 3 6 3 2 3 3 3 3 4 3 9 12 12 14 15 20 19 21 24 24 28 28 28 27 24 20 11
5 5 8 4 5 6 5 4 4 5 4 7 4 9 15 7 10 3 4 3 2 5 2 2 3 4 12 10 10 11 13 15 19 18 19 21 23 21 22 22 19 15 4 7
8 5 3 3 4 5 5 6 4 3 3 6 6 3 6 7 10 4 3 4 5 1 2 3 4 7 9 9 8 10 10 16 17 19 19 20 19 17 17 17 11 3 7 11
4 5 4 5 4 5 5 3 2 4 4 3 6 4 4 8 3 2 4 3 1 2 3 5 3 9 10 8 8 10 12 15 16 19 20 20 19 18 16 12 9 3 10 8
5 5 5 7 9 7 3 5 5 10 11 8 2 4 6 3 2 3 2 3 4 4 4 3 6 8 8 8 8 8 10 11 12 16 19 19 18 16 13 11 8 4 10 9
6 8 6 7 1 3 3 2 4 2 8 10 4 3 3 5 3 5 5 3 5 4 3 7 8 8 9 8 8 9 8 7 8 11 14 18 18 15 13 12 13 9 9 12
5 6 15 19 14 11 17 14 6 6 11 2 3 4 7 1 2 4 4 4 4 6 12 13 9 9 10 7 7 8 8 6 5 7 9 11 12 14 18 20 18 17 16 16

GFSNW_850_spd_231.txt.gz
Wind_Speed
5 4 5 5 4 5 6 5 2 7 7 4 2 1 2 4 4 4 2 2 2 3 4 4 5 3 4 10 6 4 2 1 4 4 1 5 4 6 6 3 5 2 2 5
5 5 5 5 3 4 5 6 3 5 6 2 2 4 3 2 2 3 3 2 4 3 3 3 2 4 5 5 9 2 0 1 4 1 5 6 5 2 3 3 3 5 5 5
5 4 4 3 2 2 4 3 2 3 5 5 3 2 2 4 4 3 3 2 1 3 4 2 5 5 3 15 9 10 5 2 4 5 7 5 6 6 4 4 3 4 8 18
4 4 3 3 2 2 2 2 0 1 1 1 1 0 1 3 3 2 2 1 1 2 2 4 3 3 11 8 5 2 2 3 5 12 15 13 13 15 12 14 12 7 15 16
6 4 4 3 3 3 3 1 2 1 2 2 1 1 3 3 3 2 3 4 4 2 6 8 13 15 7 7 4 2 2 3 4 8 14 14 17 19 20 18 17 19 23 23
8 7 5 4 4 5 3 3 3 1 2 1 2 3 4 3 1 5 7 5 7 12 14 13 16 17 18 16 11 10 5 2 2 6 9 10 10 25 19 18 16 19 19 22
10 9 8 6 6 7 8 5 3 3 3 3 4 4 6 9 9 11 17 15 9 8 10 21 17 15 21 22 21 19 11 5 3 5 6 12 11 5 9 15 19 17 20 25
14 13 10 10 9 8 10 10 9 6 3 8 7 13 11 12 11 10 12 19 19 15 11 3 5 4 4 6 11 11 17 10 4 5 9 16 19 12 10 7 17 22 22 23
17 14 15 14 12 13 13 13 13 10 4 7 14 6 8 6 6 5 6 11 8 11 2 2 2 3 4 4 3 4 8 12 6 3 5 7 4 3 6 3 17 7 15 20
15 17 17 16 16 15 15 14 12 12 7 19 20 9 7 6 2 3 4 4 2 3 2 3 4 4 4 4 4 3 3 3 11 10 9 11 8 14 4 8 9 8 7 14
15 13 13 14 14 14 17 21 19 19 18 26 30 26 19 14 10 7 6 6 3 2 3 3 3 4 3 3 7 6 4 3 4 5 8 12 7 6 11 11 12 16 25 27
14 14 13 13 13 12 15 19 15 17 23 20 19 18 21 31 34 25 13 10 4 5 3 3 3 3 4 8 11 11 9 10 7 8 6 7 12 13 21 30 33 33 38 39
12 12 11 11 10 10 12 15 14 17 20 34 32 32 21 22 25 32 26 16 18 17 19 5 3 7 3 6 8 13 7 16 13 15 14 24 33 35 33 35 37 38 36 36
13 13 11 11 10 10 11 15 13 14 9 7 10 7 15 16 20 25 33 38 17 20 18 9 5 6 9 8 11 11 11 11 17 19 22 30 35 36 35 33 33 37 38 37
15 15 15 15 13 13 13 17 19 20 16 4 15 36 22 3 18 29 26 30 31 21 6 5 7 8 9 9 10 14 18 23 13 16 27 25 30 33 34 37 39 39 38 37
20 19 17 16 14 13 12 8 15 24 25 7 3 13 23 18 6 14 28 29 21 19 8 8 11 22 9 5 9 24 24 25 34 24 38 36 43 37 37 31 33 34 36 35
10 10 9 13 18 18 16 5 1 1 19 4 5 6 5 6 4 4 11 19 15 14 9 11 18 19 9 4 14 34 30 28 31 32 25 21 26 23 31 29 29 29 30 31
8 6 7 8 8 11 23 28 13 9 13 5 3 4 6 2 2 3 6 8 14 11 8 6 5 9 9 7 20 21 17 15 19 19 14 19 23 26 26 28 29 31 30 27
5 8 7 8 10 8 11 8 25 23 11 4 4 3 3 2 2 3 5 7 4 6 4 4 5 4 6 10 12 15 11 11 21 22 19 23 23 27 27 26 27 27 28 28
7 7 4 5 5 5 5 4 14 16 11 10 5 7 4 2 1 1 1 3 2 3 4 4 3 7 23 26 28 24 19 12 14 17 24 25 24 25 26 30 30 29 29 30
9 8 6 6 7 8 7 5 7 8 4 8 8 22 10 10 5 3 5 2 3 3 2 3 3 4 4 8 8 8 9 11 12 15 18 20 21 26 28 29 27 25 23 15
9 5 3 4 5 5 5 4 6 6 6 8 5 7 15 6 10 5 5 4 3 5 5 2 3 4 9 6 6 7 9 10 16 15 18 19 21 21 21 22 23 19 9 10
7 5 3 3 3 5 5 6 4 3 3 6 6 3 7 8 11 5 4 6 4 2 3 3 4 6 12 9 7 8 7 12 13 16 18 21 21 19 17 19 16 7 4 9
6 6 4 6 5 6 5 2 1 0 2 3 6 3 5 7 4 3 3 2 1 2 3 5 3 7 8 6 7 9 8 10 12 15 19 23 21 20 18 14 10 2 2 8
5 5 5 7 8 6 3 4 4 7 9 4 1 4 5 3 4 3 2 3 4 4 4 2 5 7 8 8 8 8 7 9 10 13 16 20 20 19 18 15 10 3 6 11
5 6 5 7 2 3 2 1 3 5 8 4 2 3 3 6 4 6 6 3 4 3 2 6 12 11 10 11 9 10 9 8 9 12 12 14 16 16 16 15 11 7 9 13
5 5 13 15 8 9 14 12 3 2 7 2 2 4 4 2 3 5 5 4 0 6 14 19 22 19 17 13 9 9 9 10 8 9 8 9 10 11 14 17 16 14 14 15

GFSNW_850_spd_234.txt.gz
Wind_Speed
3 2 2 3 3 4 4 2 2 5 4 0 2 1 1 3 2 2 2 5 6 7 9 6 6 5 6 10 18 8 6 5 5 6 5 5 3 4 5 3 3 8 13 13
4 3 3 2 3 2 3 2 2 4 3 1 1 2 1 3 3 2 2 3 3 6 7 4 7 8 9 10 15 6 6 2 5 6 4 5 4 3 3 4 1 3 3 4
4 4 3 2 3 2 1 1 1 3 4 2 1 0 1 2 4 5 3 4 4 6 6 4 8 8 4 18 14 10 6 3 4 8 10 7 9 7 5 2 4 5 8 17
6 4 4 3 3 3 2 2 1 0 0 1 1 2 3 3 2 4 4 3 5 5 3 10 5 10 15 10 3 4 3 5 9 13 14 14 14 15 15 15 17 10 20 21
9 6 5 5 4 5 3 2 3 1 2 3 4 2 4 6 3 3 5 6 4 5 9 11 15 15 13 8 7 3 4 5 10 16 16 14 17 21 21 20 20 20 24 25
10 10 7 6 6 6 4 6 4 2 2 3 4 4 4 3 1 5 6 7 9 12 12 13 15 16 19 17 17 15 5 5 6 13 11 11 13 16 18 20 20 17 20 22
13 11 10 9 8 8 7 6 4 3 3 5 5 5 8 10 11 11 16 15 14 9 13 18 19 21 23 23 22 20 10 9 7 9 10 11 9 7 10 13 16 17 20 21
14 16 12 10 11 10 10 9 7 4 5 8 10 12 13 14 13 13 16 17 15 12 8 5 7 4 3 5 9 10 16 12 6 5 10 16 20 13 12 14 19 12 15 18
20 16 16 14 13 12 12 13 12 8 3 7 14 11 9 9 9 10 14 6 3 5 5 3 5 5 6 3 2 1 7 13 8 5 8 9 1 5 2 6 15 13 6 12
17 19 18 18 18 16 14 13 13 10 8 17 19 11 9 9 7 7 12 6 4 5 4 6 7 9 6 5 8 4 3 5 14 13 11 10 10 11 13 11 8 10 15 23
16 16 19 18 18 19 19 18 18 16 11 22 23 20 18 16 13 9 6 8 7 4 5 3 4 5 6 7 11 9 11 6 6 7 8 13 4 6 14 15 24 27 37 38
16 16 15 14 15 17 17 17 15 18 20 15 11 12 21 28 27 23 13 9 3 2 4 4 3 6 5 12 14 15 15 16 12 12 10 17 27 29 35 36 36 36 36 34
15 13 13 12 12 12 16 12 10 9 14 27 24 25 22 26 30 28 24 25 25 25 21 7 5 8 8 11 10 14 14 18 13 17 17 20 26 35 36 37 35 33 33 34
14 13 11 10 10 10 10 13 11 14 6 6 7 6 8 3 17 22 27 30 21 11 12 9 7 8 10 12 14 14 16 17 20 22 25 31 29 26 28 32 35 35 37 36
17 15 14 13 12 11 11 14 14 15 11 6 14 24 16 4 19 21 23 26 24 20 9 7 10 15 11 14 14 18 22 22 14 17 28 27 32 38 36 34 35 34 33 35
18 17 16 16 14 13 11 6 16 23 24 5 4 9 12 9 6 13 18 19 19 17 7 9 16 26 12 6 12 25 29 26 27 25 33 34 36 36 35 32 28 33 33 31
20 19 22 19 18 17 11 4 3 4 20 4 5 5 4 3 2 3 8 15 11 12 6 9 23 21 8 5 16 32 29 25 28 29 29 29 28 26 30 31 32 31 33 32
12 11 10 11 10 13 19 21 9 4 15 4 3 4 5 3 3 4 7 8 11 10 9 8 8 10 9 7 21 24 22 19 19 21 20 20 24 26 29 29 29 29 30 31
13 12 12 10 10 8 7 10 20 19 9 4 5 3 2 2 3 3 6 7 5 9 6 5 6 5 7 14 18 18 17 16 22 19 19 21 21 25 26 26 27 28 32 31
16 14 7 5 6 9 11 9 12 10 7 7 6 12 6 3 4 4 2 6 4 3 5 4 4 9 26 25 20 18 13 10 12 16 19 21 23 24 25 26 27 27 30 30
13 8 5 7 13 10 6 6 8 10 5 9 9 20 12 8 6 5 5 3 3 3 3 3 3 4 6 3 4 5 6 7 9 13 15 17 22 26 27 27 27 28 26 20
13 9 9 9 5 5 5 5 6 7 5 9 6 7 12 7 9 7 5 4 4 5 6 3 3 3 4 4 5 5 6 7 11 11 14 17 20 22 23 23 24 23 14 15
15 4 6 5 5 8 7 8 5 5 6 9 9 4 7 8 10 6 4 6 6 4 4 3 5 2 3 5 4 6 6 7 10 11 13 16 20 21 20 22 20 12 9 12
6 8 6 6 6 6 6 7 1 4 5 7 8 4 7 7 6 4 5 4 2 4 4 5 2 3 5 4 5 6 9 7 10 11 15 18 22 23 21 19 15 6 4 9
6 6 5 7 8 6 3 4 4 1 3 4 3 4 5 4 5 4 3 3 5 5 3 2 11 12 10 9 8 8 9 10 8 12 15 16 18 20 21 18 12 5 2 5
5 6 4 6 4 6 6 7 6 3 2 3 4 3 4 7 4 6 8 4 5 2 2 5 10 15 16 13 12 10 10 10 10 11 12 13 14 15 16 16 13 6 2 6
5 5 10 8 3 4 4 3 3 2 3 3 3 4 7 2 4 5 5 4 5 5 6 8 10 14 17 16 12 10 11 11 12 11 10 11 11 11 12 13 12 10 7 5

GFSNW_850_spd_237.txt.gz
Wind_Speed
6 5 5 5 4 1 2 2 1 5 2 1 2 2 3 3 5 4 6 6 8 8 13 8 10 10 12 12 18 14 8 6 11 9 7 4 10 4 3 3 5 9 9 15
7 6 7 6 4 3 1 2 3 3 1 2 2 4 1 5 6 4 4 6 4 10 9 5 10 14 8 11 16 10 9 3 8 4 5 1 5 2 3 3 3 5 5 7
8 7 7 6 6 4 3 1 1 2 1 4 3 3 3 3 6 9 7 8 9 8 8 8 8 13 5 15 14 6 5 8 10 10 7 7 12 12 7 7 4 10 9 17
11 8 8 7 7 6 5 1 3 2 2 4 6 4 5 8 5 6 7 6 8 8 2 8 9 15 15 15 2 6 5 6 14 15 18 17 18 17 16 16 14 13 17 23
14 11 9 9 8 8 4 4 4 4 7 4 7 4 4 8 7 5 8 8 10 7 10 13 14 16 15 15 14 10 5 5 14 15 17 17 17 17 18 19 19 19 21 22
15 14 12 10 10 11 6 7 5 4 4 5 6 7 8 5 2 6 10 9 9 12 14 14 19 22 23 19 18 16 14 9 8 14 12 13 13 17 14 16 18 19 20 21
16 15 15 13 11 13 6 7 6 4 5 7 8 6 8 9 10 11 13 15 14 17 12 19 19 22 24 23 19 21 16 13 8 9 13 12 6 4 9 13 16 17 18 17
18 17 15 14 13 13 12 10 7 5 5 11 10 11 12 13 14 14 16 13 14 13 12 8 7 6 3 4 9 8 11 11 5 5 10 15 18 10 5 12 14 13 13 12
23 20 19 15 14 14 13 11 13 6 2 7 11 11 13 9 8 9 14 11 6 7 7 7 7 8 11 4 3 5 6 8 8 9 8 7 2 5 8 8 13 4 7 8
25 24 21 21 19 16 14 11 13 10 7 18 17 11 8 10 8 6 13 5 5 6 3 7 10 12 14 9 9 4 4 4 11 12 12 10 9 11 14 9 9 22 18 22
23 23 26 23 22 21 19 11 12 14 8 20 21 17 16 16 14 8 6 6 8 5 4 4 5 5 7 8 12 9 11 9 9 6 8 13 9 9 8 15 29 31 33 34
23 20 22 24 23 21 20 16 13 14 16 15 9 14 18 25 24 19 13 10 3 6 3 3 3 6 5 11 13 17 13 13 11 15 11 28 33 28 30 29 27 30 32 32
23 22 21 19 20 20 19 12 9 9 13 24 24 25 20 22 25 23 22 22 22 21 16 10 5 8 9 11 11 16 16 19 12 17 18 22 27 29 33 31 26 29 31 33
21 19 18 17 16 13 12 15 12 11 6 6 6 6 10 10 13 23 25 26 20 16 12 13 6 8 11 11 16 16 17 18 16 20 22 28 27 28 27 32 31 33 32 32
19 20 18 16 15 13 12 13 13 12 10 5 12 17 18 19 18 18 20 22 21 20 10 7 9 17 11 14 15 16 21 17 13 15 23 23 27 29 30 33 32 31 28 30
22 20 18 17 16 15 11 9 16 19 15 4 4 4 10 11 8 12 20 20 18 18 9 10 15 25 16 5 11 22 25 23 23 22 26 27 29 31 30 28 28 31 31 31
24 22 21 19 19 17 10 3 6 12 21 3 5 4 3 4 5 3 7 12 10 10 6 11 19 20 6 6 16 33 27 27 24 22 19 22 24 25 26 28 28 28 30 30
25 24 22 18 16 18 17 10 7 7 12 5 3 4 5 8 5 5 7 7 8 8 7 6 10 12 9 7 19 21 20 20 17 16 17 20 24 25 24 26 27 29 28 28
21 20 18 15 13 10 10 16 18 11 8 4 6 5 2 6 5 6 8 7 5 9 7 8 7 6 7 12 16 16 17 14 17 18 17 19 20 22 23 25 26 26 28 27
25 23 9 7 10 12 10 8 11 10 8 8 6 16 7 6 9 8 6 7 4 4 8 9 5 12 26 27 24 16 9 11 13 16 19 19 20 23 25 26 25 25 27 29
23 9 6 10 15 11 6 7 8 10 5 9 13 22 12 11 5 4 4 3 3 3 4 4 4 6 5 4 3 4 7 10 11 13 15 14 18 22 26 26 24 24 23 24
14 11 15 15 7 6 6 6 6 7 6 10 11 9 15 9 7 6 5 4 3 6 5 3 4 1 3 1 2 4 7 10 12 13 15 16 17 19 22 23 23 25 21 16
16 6 7 7 7 8 6 9 6 5 7 8 10 7 9 6 10 6 4 5 6 2 3 4 6 4 6 4 3 5 7 10 12 14 15 15 18 19 22 25 25 21 13 13
6 8 7 6 6 6 7 8 5 1 6 14 15 11 9 8 8 5 5 5 4 4 4 9 3 5 4 3 5 7 9 10 13 14 15 18 20 21 22 23 22 17 11 10
6 7 6 8 10 5 4 8 2 3 3 8 7 7 10 6 4 5 5 4 5 6 6 2 5 6 7 8 8 9 10 13 14 14 17 18 19 19 20 21 21 15 9 7
3 6 6 5 5 8 8 7 9 7 6 6 6 4 3 5 4 6 7 5 7 5 4 6 4 6 8 10 12 11 10 11 12 14 16 16 17 18 16 17 17 15 10 6
6 5 8 6 1 1 7 10 8 5 8 6 4 4 8 4 4 8 5 6 6 7 7 6 6 10 13 14 13 12 12 13 13 14 14 14 14 14 13 15 14 14 11 7